UPSVAC Airport Information Service

Houston George Bush Intercontinental Airport

ICAO: KIAH Country: United States
Latitude: 29.9844 Longitude: -95.3414
Latest Arrival : UPSJUMP (KCVG-KIAH) Latest Departure : UPS1281 (KIAH-KSDF)


WX CaptureLIVE
Data provided by noaa.gov | Fetched at 23:03:47

METAR : KIAH 112153Z 17012G20KT 10SM SCT038 BKN065 BKN250 31/21 A2986 RMK AO2 SLP111 T03110206

TAF : KIAH 112209Z 1122/1224 17015G20KT P6SM SCT035 BKN060 FM120000 07008KT P6SM BKN035 TEMPO 1202/1204 4SM TSRA BKN015CB FM120400 07010KT 6SM -SHRA BR VCTS OVC015CB FM121000 04010KT P6SM VCSH SCT008 OVC015


Runway Data for KIAH
Data provided by openaviationdata.com

Runway ID Mag Var Hdg Length Elevation Surface ILS Freq ILS Id ILS Slope
08L 5 84° 8992 ft 97 ft Concrete 111.55 IBZU 3
08R 5 84° 9394 ft 97 ft Concrete 109.7 IIAH 3
9 5 84° 9991 ft 97 ft Asphalt 110.9 IUYO 3
15L 5 147° 12022 ft 97 ft Concrete 111.9 IHSQ 2
15R 5 147° 10016 ft 97 ft Concrete 111.15 ILKM 3
26L 5 264° 9394 ft 97 ft Concrete 109.7 IJYV 3
26R 5 264° 8992 ft 97 ft Concrete 111.55 IOND 3
27 5 264° 9991 ft 97 ft Asphalt 110.9 IGHI 3
33L 5 327° 10016 ft 97 ft Concrete -- -- --
33R 5 327° 12022 ft 97 ft Concrete 111.9 ICDG 3

Houston George Bush Intercontinental Airport, United States
Use only for reference purposes



Not for navigational purposes.